Location: Cahas Mountain Overlook
(37.0833°N, 80.1000°W)
Time: 19:16:16
(UTC-04:00)

Tiros 1 - Pass Details

Date: 10 February 2026
Orbit: 618 x 649 km, 48.4° (Epoch: 13 March)

Event Time Altitude Azimuth Distance (km) Brightness Sun altitude
Rises 13:46:53 0° 285° (WNW) 2,886 10.6 36.0°
Reaches altitude 10° 13:49:41 10° 301° (WNW) 1,978 9.7 35.8°
Maximum altitude 13:53:08 21° 351° (N) 1,398 8.7 35.5°
Drops below altitude 10° 13:56:36 10° 41° (NE) 1,978 9.3 35.2°
Sets 13:59:24 0° 57° (ENE) 2,886 10.1 35.0°
